Location: Unspecified
(0.0000°N, 0.0000°E)
Time: 18:59:48
(UTC+00:00)

Envisat - Pass Details

Date: 03 December 2018
Orbit: 764 x 766 km, 98.2° (Epoch: 09 December)

Event Time Altitude Azimuth Distance (km) Brightness Sun altitude
Rises 19:09:07 0° 164° (SSE) 3,231 6.3 -18.3°
Reaches altitude 10° 19:11:26 10° 162° (SSE) 2,302 5.5 -18.8°
Maximum altitude 19:16:30 72° 78° (ENE) 804 2.8 -20.0°
Drops below altitude 10° 19:21:32 10° 354° (N) 2,292 5.3 -21.1°
Sets 19:23:50 0° 352° (N) 3,214 6.1 -21.6°
